Tracking 33176 objects as of 12-Feb-2026
HD Live streaming from Space Station
objects crossing your sky now

CZ-6A DEB

Track CZ-6A DEB now!
10-day predictions


NORAD ID: 54532
Int'l Code: 2022-151KL
Perigee: 647.6 km
Apogee: 827.4 km
Inclination: 98.6 °
Period: 99.4 minutes
Semi major axis: 7108 km
RCS: Unknown
Launch date: November 11, 2022
Source: People's Republic of China (PRC)
Launch site: Taiyaun Space Center, China (TSC)

Note: This is SATELLITE DEBRIS
Your satellite tracking list
Your tracking list is empty




NASA's NSSDC Master Catalog

Two Line Element Set (TLE):
1 54532U 22151KL  26043.59836883  .00000946  00000-0  24068-3 0  9997
2 54532  98.6160  98.2385 0126459 310.8778  48.1512 14.48557593171536
Source of the keplerian elements: AFSPC